EW2839 Weather Reports


Display with metric or nautical units.
time (UTC)temp
F
wind
direction
speed
MPH
gust
MPH
rain 1hr
in
rain 24hr
in
rain mn
in
humidity
%
barometer
mb
20260506023904 63 68 0.0 0.0 0.00 0.00 0.00 67 1016.0
20260506023404 63 68 0.0 0.0 0.00 0.00 0.00 66 1016.0
20260506021404 63 45 0.0 0.0 0.00 0.00 0.00 66 1015.0
20260506020904 63 45 0.0 0.0 0.00 0.00 0.00 67 1015.0
20260506020404 63 45 0.0 0.0 0.00 0.00 0.00 67 1015.0
20260506014904 63 45 0.0 0.0 0.00 0.00 0.00 66 1016.0
20260506014404 63 315 0.0 0.0 0.00 0.00 0.00 66 1015.0
20260506013905 63 315 0.0 0.0 0.00 0.00 0.00 66 1015.0
20260506013404 63 315 0.0 0.0 0.00 0.00 0.00 66 1015.0
20260506011904 63 292 0.0 0.0 0.00 0.00 0.00 67 1016.0
20260506010406 63 333 0.0 2.0 0.00 0.00 0.00 66 1016.0
20260506004904 64 68 0.0 1.0 0.00 0.00 0.00 65 1016.0
20260506004404 63 68 0.0 0.0 0.00 0.00 0.00 65 1016.0
20260506003905 63 68 0.0 0.0 0.00 0.00 0.00 65 1016.0
20260506003404 63 68 0.0 2.0 0.00 0.00 0.00 65 1016.0
20260506001904 63 327 0.0 2.0 0.00 0.00 0.00 64 1016.0
20260506000904 63 270 0.0 0.0 0.00 0.00 0.00 64 1015.0
20260506000403 63 349 0.0 3.0 0.00 0.00 0.00 64 1015.0
20260505234404 63 10 0.0 2.0 0.00 0.00 0.00 65 1016.0
20260505233904 63 285 0.0 1.0 0.00 0.00 0.00 64 1016.0
20260505233404 63 341 1.0 5.0 0.00 0.00 0.00 64 1016.0
20260505231404 63 337 1.0 2.0 0.00 0.00 0.00 65 1016.0
20260505230904 63 319 1.0 2.0 0.00 0.00 0.00 64 1016.0
20260505230404 63 268 1.0 3.0 0.00 0.00 0.00 64 1016.0
20260505224903 64 306 1.0 3.0 0.00 0.00 0.00 65 1016.0
20260505224404 64 307 0.0 1.0 0.00 0.00 0.00 64 1016.0
20260505223904 64 298 2.0 5.0 0.00 0.00 0.00 64 1016.0
20260505223404 64 38 1.0 6.0 0.00 0.00 0.00 64 1016.0
20260505221903 64 317 1.0 3.0 0.00 0.00 0.00 64 1016.0
20260505221404 64 22 1.0 3.0 0.00 0.00 0.00 64 1017.0
20260505220405 64 318 0.0 5.0 0.00 0.00 0.00 64 1017.0
20260505214904 64 238 0.0 0.0 0.00 0.00 0.00 66 1017.0
20260505214404 63 223 1.0 7.0 0.00 0.00 0.00 64 1017.0
20260505213403 63 15 0.0 3.0 0.00 0.00 0.00 65 1017.0
20260505211904 64 220 0.0 1.0 0.00 0.00 0.00 65 1017.0
20260505211403 64 322 2.0 3.0 0.00 0.00 0.00 64 1017.0
20260505210903 64 295 1.0 5.0 0.00 0.00 0.00 65 1017.0
20260505210403 64 300 1.0 5.0 0.00 0.00 0.00 65 1017.0
20260505204905 64 128 0.0 0.0 0.00 0.00 0.00 64 1017.0
20260505204404 64 221 0.0 1.0 0.00 0.00 0.00 65 1017.0
20260505203404 64 302 2.0 3.0 0.00 0.00 0.00 66 1017.0
20260505201904 63 214 3.0 6.0 0.00 0.00 0.00 66 1017.0
20260505201403 63 173 1.0 6.0 0.00 0.00 0.00 66 1017.0
20260505200904 63 222 1.0 5.0 0.00 0.00 0.00 67 1017.0
20260505200404 63 247 1.0 5.0 0.00 0.00 0.00 68 1017.0
20260505194904 62 44 1.0 2.0 0.00 0.00 0.00 69 1017.0
20260505194404 62 169 0.0 2.0 0.00 0.00 0.00 68 1017.0
20260505193903 62 149 0.0 0.0 0.00 0.00 0.00 70 1017.0
20260505193403 62 143 0.0 2.0 0.00 0.00 0.00 70 1017.0
20260505191904 61 299 0.0 2.0 0.00 0.00 0.00 70 1017.0
20260505191404 61 299 0.0 0.0 0.00 0.00 0.00 71 1017.0
20260505190904 61 303 0.0 0.0 0.00 0.00 0.00 71 1017.0
20260505190405 61 144 0.0 3.0 0.00 0.00 0.00 71 1017.0
20260505184404 60 313 1.0 3.0 0.00 0.00 0.00 72 1017.0
20260505183403 59 329 0.0 3.0 0.00 0.00 0.00 73 1017.0
20260505181904 59 220 1.0 2.0 0.00 0.00 0.00 72 1017.0
20260505180904 59 225 1.0 3.0 0.00 0.00 0.00 72 1017.0
20260505174904 59 101 0.0 0.0 0.00 0.00 0.00 73 1017.0
20260505174404 59 153 0.0 0.0 0.00 0.00 0.00 74 1017.0
20260505173903 58 186 0.0 0.0 0.00 0.00 0.00 74 1017.0
20260505173404 58 251 0.0 1.0 0.00 0.00 0.00 74 1017.0
20260505171904 58 184 0.0 0.0 0.00 0.00 0.00 74 1017.0
20260505171403 58 183 1.0 2.0 0.00 0.00 0.00 74 1017.0
20260505170903 58 156 0.0 2.0 0.00 0.00 0.00 75 1017.0
20260505170404 57 149 2.0 3.0 0.00 0.00 0.00 76 1017.0
20260505163904 57 220 1.0 5.0 0.00 0.00 0.00 76 1017.0
20260505163404 57 228 2.0 5.0 0.00 0.00 0.00 75 1017.0
20260505161903 57 203 1.0 3.0 0.00 0.00 0.00 76 1016.0
20260505161404 57 212 3.0 5.0 0.00 0.00 0.00 77 1017.0
20260505160903 57 240 0.0 5.0 0.00 0.00 0.00 75 1017.0
20260505160403 57 299 1.0 2.0 0.00 0.00 0.00 76 1017.0
20260505151904 56 214 0.0 0.0 0.00 0.00 0.00 77 1016.0
20260505151404 56 207 0.0 0.0 0.00 0.00 0.00 76 1016.0
20260505150903 56 203 0.0 0.0 0.00 0.00 0.00 76 1016.0
20260505150403 56 245 0.0 0.0 0.00 0.00 0.00 76 1016.0
20260505140404 56 218 0.0 0.0 0.00 0.00 0.00 74 1016.0
20260505124904 56 213 0.0 2.0 0.00 0.00 0.00 73 1015.0
20260505124405 56 225 1.0 2.0 0.00 0.00 0.00 73 1015.0
20260505123904 56 192 0.0 1.0 0.00 0.00 0.00 73 1015.0
20260505123404 56 198 0.0 2.0 0.00 0.00 0.00 73 1015.0
20260505121904 56 198 0.0 0.0 0.00 0.00 0.00 73 1015.0
20260505121403 56 214 1.0 2.0 0.00 0.00 0.00 73 1015.0
20260505120404 56 224 1.0 3.0 0.00 0.00 0.00 72 1015.0
20260505114404 56 225 0.0 1.0 0.00 0.00 0.00 72 1015.0
20260505113904 56 216 1.0 2.0 0.00 0.00 0.00 72 1015.0
20260505113404 57 224 0.0 0.0 0.00 0.00 0.00 72 1015.0
20260505111404 57 255 0.0 0.0 0.00 0.00 0.00 72 1015.0
20260505110903 57 259 0.0 0.0 0.00 0.00 0.00 72 1015.0
20260505110404 57 240 0.0 0.0 0.00 0.00 0.00 72 1015.0
20260505101904 56 229 0.0 0.0 0.00 0.00 0.00 72 1015.0
20260505101405 56 240 0.0 0.0 0.00 0.00 0.00 72 1015.0
20260505100903 56 200 0.0 0.0 0.00 0.00 0.00 72 1015.0
20260505100403 56 229 0.0 0.0 0.00 0.00 0.00 72 1015.0
20260505094403 56 239 0.0 3.0 0.00 0.00 0.00 72 1015.0
20260505093904 56 208 1.0 2.0 0.00 0.00 0.00 72 1015.0
20260505093403 56 198 2.0 5.0 0.00 0.00 0.00 72 1015.0
20260505091404 57 202 0.0 0.0 0.00 0.00 0.00 72 1015.0
20260505090904 57 206 0.0 2.0 0.00 0.00 0.00 71 1015.0
20260505090404 57 209 1.0 5.0 0.00 0.00 0.00 71 1015.0
20260505084403 57 232 0.0 2.0 0.00 0.00 0.00 71 1015.0
20260505083904 57 222 2.0 5.0 0.00 0.00 0.00 71 1015.0
20260505083403 57 244 2.0 5.0 0.00 0.00 0.00 70 1015.0
20260505081904 58 214 1.0 2.0 0.00 0.00 0.00 70 1014.0
20260505081403 58 211 0.0 0.0 0.00 0.00 0.00 70 1015.0
20260505080904 58 224 2.0 5.0 0.00 0.00 0.00 70 1015.0
20260505080404 58 206 2.0 5.0 0.00 0.00 0.00 70 1015.0
20260505074904 58 265 1.0 3.0 0.00 0.00 0.00 70 1014.0
20260505074404 58 223 2.0 5.0 0.00 0.00 0.00 69 1014.0
20260505073904 58 219 0.0 2.0 0.00 0.00 0.00 69 1014.0
20260505071403 58 221 1.0 3.0 0.00 0.00 0.00 68 1013.0
20260505070904 58 219 1.0 3.0 0.00 0.00 0.00 68 1013.0
20260505064903 59 262 2.0 5.0 0.00 0.00 0.00 67 1013.0
20260505063404 59 205 3.0 7.0 0.00 0.00 0.00 66 1013.0
20260505061904 60 232 2.0 6.0 0.00 0.00 0.00 66 1012.0
20260505061404 60 216 3.0 6.0 0.00 0.00 0.00 66 1013.0
20260505060903 61 209 1.0 6.0 0.00 0.00 0.00 66 1013.0
20260505060404 61 197 1.0 3.0 0.00 0.00 0.00 66 1013.0
20260505054903 62 227 1.0 5.0 0.00 0.00 0.00 66 1013.0
20260505054403 62 228 2.0 3.0 0.00 0.00 0.00 65 1013.0
20260505053903 63 199 0.0 0.0 0.00 0.00 0.00 65 1013.0
20260505053403 63 315 0.0 7.0 0.00 0.00 0.00 65 1013.0
20260505051904 63 229 1.0 5.0 0.00 0.00 0.00 64 1013.0
20260505051404 64 232 0.0 5.0 0.00 0.00 0.00 65 1013.0
20260505050904 64 248 1.0 2.0 0.00 0.00 0.00 65 1013.0
20260505041404 65 237 0.0 0.0 0.00 0.00 0.00 67 1012.0
20260505040904 65 223 2.0 3.0 0.00 0.00 0.00 67 1012.0
20260505034904 65 217 0.0 1.0 0.00 0.00 0.00 67 1012.0
20260505034404 65 222 0.0 1.0 0.00 0.00 0.00 66 1011.0
20260505033904 66 225 2.0 3.0 0.00 0.00 0.00 66 1011.0
20260505033404 66 202 0.0 0.0 0.00 0.00 0.00 66 1011.0
20260505031904 66 194 0.0 0.0 0.00 0.00 0.00 64 1011.0
20260505031403 67 225 0.0 0.0 0.00 0.00 0.00 64 1011.0
20260505030904 67 225 0.0 2.0 0.00 0.00 0.00 64 1011.0
20260505030404 67 203 1.0 5.0 0.00 0.00 0.00 64 1011.0
20260505024904 67 225 3.0 3.0 0.00 0.00 0.00 64 1011.0
20260505024404 67 222 1.0 2.0 0.00 0.00 0.00 63 1011.0